Terminal Aerodrome Forecast
Issued by NWS

Home | Current Version | Previous Version | Graphics & Text | Print | Product List | Glossary On
Versions: 1 2 3 4 5 6 7 8 9 10 11 12 13 14 15 16 17 18 19
000
FTUS43 KFGF 261700
TAFBJI
TAF
KBJI 261739Z 2618/2718 34009KT P6SM OVC015
      TEMPO 2621/2701 2SM -SN BR
     FM271200 29005KT P6SM BKN025=

USA.gov is the U.S. government's official web portal to all federal, state and local government web resources and services.